Location: Newark
(34.9471°N, 136.1778°E)
Time: 06:23:38
(UTC+00:00)

LilacSat-2 - Pass Details

Date: 25 February 2020
Orbit: 514 x 534 km, 97.5° (Epoch: 07 April)

Event Time Altitude Azimuth Distance (km) Brightness Sun altitude
Rises 19:52:43 0° 30° (NNE) 2,653 ? -20.6°
Reaches altitude 10° 19:55:18 10° 49° (NE) 1,764 ? -20.1°
Maximum altitude 19:58:04 19° 95° (E) 1,292 ? -19.6°
Drops below altitude 10° 20:00:49 10° 142° (SE) 1,763 ? -19.0°
Sets 20:03:24 0° 160° (SSE) 2,651 ? -18.5°
